Weather History for K6R6 - March, 2014

Change the Weather History Date:

Tuesday, March 11, 2014

  Actual Average (KFST) Record (KFST)
Temperature  
Mean Temperature 70 °F -  
Max Temperature 91 °F 68 °F 87 °F (2011)
Min Temperature 48 °F 43 °F 30 °F (2012)
Cooling Degree Days 4    
Growing Degree Days 20 (Base 50)    
Moisture  
Dew Point 34 °F    
Average Humidity 45    
Maximum Humidity 93    
Minimum Humidity 7    
Precipitation  
Precipitation 0.00 in - - ()
Sea Level Pressure  
Sea Level Pressure 29.70 in    
Wind  
Wind Speed 9 mph (WSW)    
Max Wind Speed 23 mph    
Max Gust Speed 32 mph    
Averages and records for this station are not official NWS values.
T = Trace of Precipitation, MM = Missing Value Source: NWS Daily Summary

Daily Weather History Graph

Daily Weather History Graph

Search for Another Location

Airport or City:

Trip Planner

Search our weather history database for the weather conditions in past years. The results will help you decide how hot, cold, wet, or windy it might be!

Date:

Astronomy

Mar. 11, 2014 Rise Set
Actual Time 8:03 AM CDT 7:54 PM CDT
Civil Twilight 7:39 AM CDT 8:18 PM CDT
Nautical Twilight 7:11 AM CDT 8:46 PM CDT
Astronomical Twilight 6:43 AM CDT 9:14 PM CDT
Moon 3:47 PM CDT (3/11) 4:43 AM CDT (3/11)
Length of Visible Light 12h 39m
Length of Day
11h 51m
Waxing Gibbous, 78% of the Moon is Illuminated
Mar 11
Waxing Gibbous
Mar 16
Full
Mar 23
Last Quarter
Mar 30
New
Apr 7
First Quarter

Hourly Weather History & Observations

Time (CDT) Temp. Dew Point Humidity Pressure Visibility Wind Dir Wind Speed Gust Speed Precip Events Conditions
12:53 AM 50.0 °F 46.0 °F 86% 29.85 in - NNE 3.5 mph - N/A   Unknown
1:53 AM 52.0 °F 48.9 °F 89% 29.83 in - Calm Calm - N/A   Unknown
2:53 AM 52.0 °F 50.0 °F 93% 29.80 in - Calm Calm - N/A   Unknown
3:53 AM 52.0 °F 50.0 °F 93% 29.77 in - SSE 3.5 mph - N/A   Unknown
4:53 AM 52.0 °F 50.0 °F 93% 29.74 in - SSW 4.6 mph - N/A   Unknown
5:53 AM 52.0 °F 48.9 °F 89% 29.73 in - SSW 6.9 mph - N/A   Unknown
6:53 AM 51.1 °F 48.9 °F 92% 29.73 in - SW 5.8 mph - N/A   Unknown
7:53 AM 50.0 °F 48.0 °F 93% 29.73 in - SW 10.4 mph - N/A   Unknown
8:53 AM 48.9 °F 46.9 °F 93% 29.75 in - SW 8.1 mph - N/A   Unknown
9:53 AM 63.0 °F 44.1 °F 50% 29.73 in - WSW 13.8 mph 19.6 mph N/A   Unknown
10:53 AM 72.0 °F 42.1 °F 34% 29.72 in - SW 19.6 mph - N/A   Unknown
11:53 AM 77.0 °F 39.0 °F 25% 29.70 in - WSW 18.4 mph 28.8 mph N/A   Unknown
12:53 PM 82.0 °F 36.0 °F 19% 29.69 in - WSW 19.6 mph 26.5 mph N/A   Unknown
1:53 PM 86.0 °F 33.1 °F 15% 29.65 in - SW 18.4 mph 28.8 mph N/A   Unknown
2:53 PM 89.1 °F 27.0 °F 11% 29.61 in - WSW 23.0 mph 31.1 mph N/A   Unknown
3:53 PM 90.0 °F 24.1 °F 9% 29.58 in - SW 19.6 mph 28.8 mph N/A   Unknown
4:53 PM 91.0 °F 23.0 °F 8% 29.56 in - SW 23.0 mph 32.2 mph N/A   Unknown
5:53 PM 90.0 °F 21.0 °F 8% 29.56 in - WSW 23.0 mph 28.8 mph N/A   Unknown
6:53 PM 89.1 °F 18.0 °F 7% 29.58 in - WSW 20.7 mph 27.6 mph N/A   Unknown
7:53 PM 82.9 °F 12.9 °F 7% 29.63 in - NNW 9.2 mph - N/A   Unknown
8:53 PM 73.9 °F 15.1 °F 11% 29.69 in - WNW 8.1 mph - N/A   Unknown
9:53 PM 68.0 °F 16.0 °F 14% 29.71 in - West 5.8 mph - N/A   Unknown
10:53 PM 63.0 °F 17.1 °F 17% 29.73 in - West 9.2 mph - N/A   Unknown
11:53 PM 63.0 °F 18.0 °F 18% 29.75 in - WSW 10.4 mph - N/A   Unknown